Time,TemperatureF,DewpointF,PressureIn,WindDirection,WindDirectionDegrees,WindSpeedMPH,WindSpeedGustMPH,Humidity,HourlyPrecipIn,Conditions,Clouds,dailyrainin,SoftwareType,DateUTC
2013-04-19 00:03:00,31.1,30.0,29.67,NNW,339,7.0,23.0,94,0.00,,,0.60,weatherlink.com 1.10,2013-04-19 05:03:00,
2013-04-19 00:18:00,31.1,30.0,29.66,North,349,11.0,28.0,94,0.00,,,0.60,weatherlink.com 1.10,2013-04-19 05:18:00,
2013-04-19 00:33:00,31.1,30.0,29.66,WNW,300,13.0,24.0,94,0.00,,,0.60,weatherlink.com 1.10,2013-04-19 05:33:00,
2013-04-19 00:48:00,31.0,30.0,29.66,NW,311,14.0,23.0,94,0.00,,,0.60,weatherlink.com 1.10,2013-04-19 05:48:00,
2013-04-19 01:03:00,31.0,29.0,29.66,NW,317,12.0,23.0,93,0.00,,,0.60,weatherlink.com 1.10,2013-04-19 06:03:00,
2013-04-19 01:18:00,30.9,29.0,29.66,WNW,300,16.0,18.0,94,0.00,,,0.00,weatherlink.com 1.10,2013-04-19 06:18:00,
2013-04-19 01:33:00,30.7,29.0,29.66,WNW,292,14.0,20.0,93,0.00,,,0.00,weatherlink.com 1.10,2013-04-19 06:33:00,
2013-04-19 01:48:00,30.8,29.0,29.66,NW,317,9.0,20.0,93,0.00,,,0.00,weatherlink.com 1.10,2013-04-19 06:48:00,
2013-04-19 02:03:00,30.7,29.0,29.66,WNW,284,11.0,25.0,93,0.00,,,0.00,weatherlink.com 1.10,2013-04-19 07:03:00,
2013-04-19 02:18:00,30.7,29.0,29.66,NW,317,15.0,20.0,93,0.00,,,0.00,weatherlink.com 1.10,2013-04-19 07:18:00,
2013-04-19 02:33:00,30.5,29.0,29.66,WNW,295,12.0,23.0,93,0.00,,,0.00,weatherlink.com 1.10,2013-04-19 07:33:00,
2013-04-19 02:48:00,30.4,28.0,29.66,NW,324,13.0,22.0,92,0.00,,,0.00,weatherlink.com 1.10,2013-04-19 07:48:00,
2013-04-19 03:03:00,30.1,28.0,29.66,NW,323,14.0,29.0,91,0.00,,,0.00,weatherlink.com 1.10,2013-04-19 08:03:00,
2013-04-19 03:18:00,29.8,28.0,29.65,WNW,297,12.0,24.0,91,0.00,,,0.00,weatherlink.com 1.10,2013-04-19 08:18:00,
2013-04-19 03:33:00,29.5,27.0,29.66,NW,318,14.0,24.0,91,0.00,,,0.00,weatherlink.com 1.10,2013-04-19 08:33:00,
2013-04-19 03:48:00,29.1,27.0,29.66,WNW,300,19.0,25.0,92,0.00,,,0.00,weatherlink.com 1.10,2013-04-19 08:48:00,
2013-04-19 04:03:00,28.9,27.0,29.66,NW,316,9.0,23.0,92,0.00,,,0.00,weatherlink.com 1.10,2013-04-19 09:03:00,
2013-04-19 04:18:00,28.9,27.0,29.66,NNW,340,12.0,23.0,91,0.00,,,0.00,weatherlink.com 1.10,2013-04-19 09:18:00,
2013-04-19 04:33:00,28.9,27.0,29.66,NW,306,13.0,23.0,91,0.00,,,0.00,weatherlink.com 1.10,2013-04-19 09:33:00,
2013-04-19 04:48:00,28.9,27.0,29.67,WNW,303,12.0,23.0,91,0.00,,,0.00,weatherlink.com 1.10,2013-04-19 09:48:00,
2013-04-19 05:03:00,28.8,27.0,29.67,WNW,301,15.0,23.0,91,0.00,,,0.00,weatherlink.com 1.10,2013-04-19 10:03:00,
2013-04-19 05:18:00,28.7,26.0,29.68,WNW,303,11.0,22.0,90,0.00,,,0.00,weatherlink.com 1.10,2013-04-19 10:18:00,
2013-04-19 05:33:00,28.6,26.0,29.68,WNW,303,6.0,21.0,89,0.00,,,0.00,weatherlink.com 1.10,2013-04-19 10:33:00,
2013-04-19 05:48:00,28.7,26.0,29.68,West,279,8.0,18.0,89,0.00,,,0.00,weatherlink.com 1.10,2013-04-19 10:48:00,
2013-04-19 06:04:00,28.7,26.0,29.69,WNW,290,11.0,19.0,89,0.00,,,0.00,weatherlink.com 1.10,2013-04-19 11:04:00,
2013-04-19 06:19:00,28.5,26.0,29.69,NW,306,13.0,18.0,89,0.00,,,0.00,weatherlink.com 1.10,2013-04-19 11:19:00,
2013-04-19 06:34:00,28.3,25.0,29.70,NW,325,15.0,20.0,88,0.00,,,0.00,weatherlink.com 1.10,2013-04-19 11:34:00,
2013-04-19 06:49:00,28.4,25.0,29.70,NW,314,13.0,19.0,88,0.00,,,0.00,weatherlink.com 1.10,2013-04-19 11:49:00,
2013-04-19 07:04:00,28.1,25.0,29.71,WNW,296,13.0,22.0,87,0.00,,,0.00,weatherlink.com 1.10,2013-04-19 12:04:00,
2013-04-19 07:19:00,28.3,25.0,29.71,WNW,285,9.0,21.0,86,0.00,,,0.00,weatherlink.com 1.10,2013-04-19 12:19:00,
2013-04-19 07:34:00,27.9,24.0,29.71,West,269,11.0,19.0,86,0.00,,,0.00,weatherlink.com 1.10,2013-04-19 12:34:00,
2013-04-19 07:49:00,27.9,24.0,29.72,NW,307,18.0,22.0,85,0.00,,,0.00,weatherlink.com 1.10,2013-04-19 12:49:00,
2013-04-19 08:04:00,28.1,25.0,29.73,NNW,340,8.0,19.0,86,0.00,,,0.00,weatherlink.com 1.10,2013-04-19 13:04:00,
2013-04-19 08:19:00,28.6,24.0,29.73,WNW,282,6.0,21.0,84,0.00,,,0.00,weatherlink.com 1.10,2013-04-19 13:19:00,
2013-04-19 08:34:00,28.9,25.0,29.73,WNW,289,16.0,19.0,84,0.00,,,0.00,weatherlink.com 1.10,2013-04-19 13:34:00,
2013-04-19 08:49:00,29.1,25.0,29.73,WNW,289,11.0,21.0,84,0.00,,,0.00,weatherlink.com 1.10,2013-04-19 13:49:00,
2013-04-19 09:04:00,29.6,25.0,29.74,West,279,16.0,24.0,84,0.00,,,0.00,weatherlink.com 1.10,2013-04-19 14:04:00,
2013-04-19 09:19:00,30.1,25.0,29.75,WNW,302,26.0,26.0,82,0.00,,,0.00,weatherlink.com 1.10,2013-04-19 14:19:00,
2013-04-19 09:49:00,31.0,26.0,29.76,NW,326,9.0,22.0,81,0.00,,,0.00,weatherlink.com 1.10,2013-04-19 14:49:00,
2013-04-19 10:04:00,31.2,26.0,29.76,West,278,4.0,21.0,81,0.00,,,0.00,weatherlink.com 1.10,2013-04-19 15:04:00,
2013-04-19 10:19:00,31.4,26.0,29.77,WNW,303,12.0,22.0,81,0.00,,,0.00,weatherlink.com 1.10,2013-04-19 15:19:00,
2013-04-19 10:34:00,31.6,26.0,29.77,NW,323,10.0,23.0,80,0.00,,,0.00,weatherlink.com 1.10,2013-04-19 15:34:00,
2013-04-19 10:49:00,32.4,27.0,29.78,NW,320,15.0,24.0,79,0.00,,,0.00,weatherlink.com 1.10,2013-04-19 15:49:00,
2013-04-19 11:04:00,32.6,26.0,29.78,WNW,291,19.0,27.0,78,0.00,,,0.00,weatherlink.com 1.10,2013-04-19 16:04:00,
2013-04-19 11:19:00,32.6,26.0,29.79,NW,324,10.0,24.0,78,0.00,,,0.00,weatherlink.com 1.10,2013-04-19 16:19:00,
2013-04-19 11:34:00,33.5,27.0,29.80,WNW,302,13.0,25.0,78,0.00,,,0.00,weatherlink.com 1.10,2013-04-19 16:34:00,
2013-04-19 11:49:00,33.5,27.0,29.80,NW,304,12.0,19.0,77,0.01,,,0.01,weatherlink.com 1.10,2013-04-19 16:49:00,
2013-04-19 12:04:00,33.7,27.0,29.81,WNW,300,7.0,22.0,76,0.01,,,0.01,weatherlink.com 1.10,2013-04-19 17:04:00,
2013-04-19 12:19:00,33.8,27.0,29.82,NW,306,20.0,27.0,75,0.01,,,0.01,weatherlink.com 1.10,2013-04-19 17:19:00,
2013-04-19 12:34:00,33.7,27.0,29.82,NNW,327,14.0,31.0,76,0.02,,,0.02,weatherlink.com 1.10,2013-04-19 17:34:00,
2013-04-19 12:49:00,33.4,26.0,29.83,NW,326,7.0,24.0,74,0.01,,,0.02,weatherlink.com 1.10,2013-04-19 17:49:00,
2013-04-19 13:04:00,33.9,26.0,29.83,WSW,258,13.0,25.0,74,0.01,,,0.02,weatherlink.com 1.10,2013-04-19 18:04:00,
2013-04-19 13:20:00,33.6,25.0,29.84,West,281,14.0,22.0,72,0.01,,,0.02,weatherlink.com 1.10,2013-04-19 18:20:00,
2013-04-19 13:35:00,33.6,26.0,29.84,NNW,327,18.0,24.0,73,0.00,,,0.02,weatherlink.com 1.10,2013-04-19 18:35:00,
2013-04-19 13:50:00,34.5,26.0,29.84,WNW,303,18.0,26.0,72,0.01,,,0.03,weatherlink.com 1.10,2013-04-19 18:50:00,
2013-04-19 14:05:00,34.8,26.0,29.85,NW,314,20.0,27.0,71,0.01,,,0.03,weatherlink.com 1.10,2013-04-19 19:05:00,
2013-04-19 14:20:00,34.9,26.0,29.86,NW,316,19.0,27.0,70,0.02,,,0.04,weatherlink.com 1.10,2013-04-19 19:20:00,
2013-04-19 14:35:00,34.4,26.0,29.87,NW,314,7.0,25.0,71,0.02,,,0.04,weatherlink.com 1.10,2013-04-19 19:35:00,
2013-04-19 14:50:00,34.8,26.0,29.88,WNW,289,14.0,20.0,70,0.01,,,0.04,weatherlink.com 1.10,2013-04-19 19:50:00,
2013-04-19 15:05:00,35.4,26.0,29.88,WNW,296,9.0,23.0,69,0.01,,,0.04,weatherlink.com 1.10,2013-04-19 20:05:00,
2013-04-19 15:20:00,34.8,26.0,29.88,NNW,346,13.0,24.0,69,0.00,,,0.04,weatherlink.com 1.10,2013-04-19 20:20:00,
2013-04-19 15:35:00,34.8,25.0,29.89,NW,319,17.0,25.0,67,0.00,,,0.04,weatherlink.com 1.10,2013-04-19 20:35:00,
2013-04-19 15:50:00,34.8,25.0,29.89,NNW,334,12.0,30.0,67,0.00,,,0.04,weatherlink.com 1.10,2013-04-19 20:50:00,
2013-04-19 16:05:00,35.6,25.0,29.90,WNW,300,10.0,20.0,66,0.00,,,0.04,weatherlink.com 1.10,2013-04-19 21:05:00,
2013-04-19 16:20:00,34.8,26.0,29.90,West,274,9.0,23.0,69,0.00,,,0.04,weatherlink.com 1.10,2013-04-19 21:20:00,
2013-04-19 16:35:00,34.5,25.0,29.91,North,351,14.0,24.0,69,0.00,,,0.04,weatherlink.com 1.10,2013-04-19 21:35:00,
2013-04-19 16:50:00,34.3,25.0,29.92,NW,312,9.0,24.0,70,0.00,,,0.04,weatherlink.com 1.10,2013-04-19 21:50:00,
2013-04-19 17:05:00,34.1,25.0,29.93,NW,323,11.0,25.0,68,0.00,,,0.04,weatherlink.com 1.10,2013-04-19 22:05:00,
2013-04-19 17:20:00,34.1,26.0,29.94,WNW,301,9.0,20.0,71,0.00,,,0.04,weatherlink.com 1.10,2013-04-19 22:20:00,
2013-04-19 17:35:00,34.1,27.0,29.94,NW,306,15.0,20.0,74,0.00,,,0.04,weatherlink.com 1.10,2013-04-19 22:35:00,
2013-04-19 17:50:00,33.5,25.0,29.95,WNW,302,14.0,25.0,71,0.00,,,0.04,weatherlink.com 1.10,2013-04-19 22:50:00,
2013-04-19 18:05:00,33.6,26.0,29.95,WNW,297,14.0,23.0,74,0.00,,,0.04,weatherlink.com 1.10,2013-04-19 23:05:00,
2013-04-19 18:20:00,33.2,25.0,29.96,NW,310,11.0,18.0,73,0.00,,,0.04,weatherlink.com 1.10,2013-04-19 23:20:00,
2013-04-19 18:35:00,33.4,26.0,29.97,WSW,258,8.0,19.0,74,0.00,,,0.04,weatherlink.com 1.10,2013-04-19 23:35:00,
2013-04-19 18:50:00,33.3,25.0,29.98,NW,313,18.0,18.0,72,0.00,,,0.04,weatherlink.com 1.10,2013-04-19 23:50:00,
2013-04-19 19:05:00,33.4,26.0,29.98,NW,314,3.0,16.0,74,0.00,,,0.04,weatherlink.com 1.10,2013-04-20 00:05:00,
2013-04-19 19:20:00,33.0,26.0,29.99,NW,324,6.0,17.0,75,0.00,,,0.04,weatherlink.com 1.10,2013-04-20 00:20:00,
2013-04-19 19:35:00,32.4,26.0,30.00,WNW,298,9.0,18.0,76,0.00,,,0.04,weatherlink.com 1.10,2013-04-20 00:35:00,
2013-04-19 19:50:00,32.0,26.0,30.00,NNW,340,9.0,17.0,77,0.00,,,0.04,weatherlink.com 1.10,2013-04-20 00:50:00,
2013-04-19 20:05:00,31.6,25.0,30.01,NW,304,10.0,16.0,77,0.00,,,0.04,weatherlink.com 1.10,2013-04-20 01:05:00,
2013-04-19 20:20:00,31.4,26.0,30.01,NW,313,5.0,13.0,79,0.00,,,0.04,weatherlink.com 1.10,2013-04-20 01:20:00,
2013-04-19 20:35:00,31.3,26.0,30.02,NW,320,12.0,17.0,79,0.00,,,0.04,weatherlink.com 1.10,2013-04-20 01:35:00,
2013-04-19 20:50:00,31.0,25.0,30.03,NW,311,6.0,16.0,79,0.00,,,0.04,weatherlink.com 1.10,2013-04-20 01:50:00,
2013-04-19 21:05:00,30.8,25.0,30.04,North,5,5.0,12.0,80,0.00,,,0.04,weatherlink.com 1.10,2013-04-20 02:05:00,
2013-04-19 21:20:00,30.8,25.0,30.05,WNW,293,7.0,14.0,80,0.00,,,0.04,weatherlink.com 1.10,2013-04-20 02:20:00,
2013-04-19 21:35:00,30.8,25.0,30.05,WNW,294,8.0,15.0,78,0.00,,,0.04,weatherlink.com 1.10,2013-04-20 02:35:00,
2013-04-19 21:51:00,30.6,25.0,30.06,NW,311,8.0,12.0,79,0.00,,,0.04,weatherlink.com 1.10,2013-04-20 02:51:00,
2013-04-19 22:06:00,30.5,25.0,30.06,NW,306,10.0,14.0,79,0.00,,,0.04,weatherlink.com 1.10,2013-04-20 03:06:00,
2013-04-19 22:21:00,30.4,25.0,30.06,WNW,292,6.0,15.0,80,0.00,,,0.04,weatherlink.com 1.10,2013-04-20 03:21:00,
2013-04-19 22:36:00,30.2,25.0,30.07,NNW,331,5.0,16.0,81,0.00,,,0.04,weatherlink.com 1.10,2013-04-20 03:36:00,
2013-04-19 22:51:00,30.1,25.0,30.07,NW,323,4.0,14.0,81,0.00,,,0.04,weatherlink.com 1.10,2013-04-20 03:51:00,
2013-04-19 23:06:00,29.9,25.0,30.07,WNW,290,9.0,15.0,82,0.00,,,0.04,weatherlink.com 1.10,2013-04-20 04:06:00,
2013-04-19 23:21:00,29.8,25.0,30.07,NNW,327,6.0,12.0,82,0.00,,,0.04,weatherlink.com 1.10,2013-04-20 04:21:00,
2013-04-19 23:36:00,29.6,25.0,30.08,WNW,301,4.0,12.0,82,0.00,,,0.04,weatherlink.com 1.10,2013-04-20 04:36:00,
2013-04-19 23:51:00,29.4,25.0,30.08,WNW,283,3.0,13.0,82,0.00,,,0.04,weatherlink.com 1.10,2013-04-20 04:51:00,